TimeEST,TemperatureF,Dew PointF,Humidity,Sea Level PressureIn,VisibilityMPH,Wind Direction,Wind SpeedMPH,Gust SpeedMPH,PrecipitationIn,Events,Conditions,WindDirDegrees,DateUTC
12:51 AM,19.9,12.9,74,30.13,7.0,WNW,8.1,-,0.00,Snow,Light Snow,300,2013-02-04 05:51:00
1:51 AM,19.9,12.0,71,30.13,10.0,WNW,8.1,-,0.00,,Overcast,290,2013-02-04 06:51:00
2:51 AM,19.0,12.0,74,30.12,10.0,WNW,5.8,-,N/A,,Overcast,290,2013-02-04 07:51:00
3:51 AM,19.0,12.0,74,30.12,10.0,WNW,6.9,-,N/A,,Overcast,300,2013-02-04 08:51:00
5:51 AM,19.4,12.2,74,30.01,10.0,WNW,9.2,-,N/A,,Overcast,300,2013-02-04 10:51:00
6:51 AM,19.0,12.9,77,30.12,10.0,NNW,3.5,-,N/A,,Overcast,330,2013-02-04 11:51:00
7:51 AM,19.0,12.9,77,30.14,10.0,WNW,3.5,-,N/A,,Overcast,290,2013-02-04 12:51:00
8:12 AM,19.4,14.0,80,30.02,10.0,WSW,3.5,-,N/A,,Overcast,250,2013-02-04 13:12:00
8:28 AM,19.4,14.0,80,30.03,10.0,West,5.8,-,N/A,,Scattered Clouds,260,2013-02-04 13:28:00
8:51 AM,19.9,14.0,78,30.16,10.0,West,3.5,-,N/A,,Partly Cloudy,270,2013-02-04 13:51:00
9:51 AM,21.0,15.1,78,30.14,10.0,SW,10.4,-,N/A,,Scattered Clouds,220,2013-02-04 14:51:00
10:51 AM,23.0,16.0,74,30.12,10.0,South,6.9,-,N/A,,Clear,190,2013-02-04 15:51:00
11:51 AM,26.1,17.1,69,30.10,10.0,SSW,6.9,-,N/A,,Mostly Cloudy,200,2013-02-04 16:51:00
12:51 PM,30.0,17.1,59,30.05,10.0,SW,9.2,-,N/A,,Clear,220,2013-02-04 17:51:00
1:51 PM,34.0,18.0,52,30.00,10.0,SSW,11.5,-,N/A,,Partly Cloudy,210,2013-02-04 18:51:00
2:51 PM,37.0,19.9,50,29.97,10.0,SW,11.5,23.0,N/A,,Overcast,230,2013-02-04 19:51:00
3:51 PM,39.0,21.0,49,29.95,10.0,SSW,9.2,-,N/A,,Overcast,210,2013-02-04 20:51:00
4:51 PM,39.9,21.0,47,29.93,10.0,WSW,9.2,-,N/A,,Overcast,240,2013-02-04 21:51:00
5:51 PM,39.0,21.9,50,29.93,10.0,WSW,8.1,18.4,N/A,,Overcast,240,2013-02-04 22:51:00
6:51 PM,39.0,21.9,50,29.95,10.0,WSW,6.9,16.1,N/A,,Overcast,250,2013-02-04 23:51:00
7:51 PM,37.9,23.0,55,29.97,10.0,West,9.2,-,N/A,,Overcast,260,2013-02-05 00:51:00
8:23 PM,37.4,26.6,65,29.89,9.0,WSW,11.5,-,0.00,Snow,Light Snow,250,2013-02-05 01:23:00
8:31 PM,37.4,26.6,65,29.89,9.0,WSW,13.8,20.7,0.00,Snow,Light Snow,240,2013-02-05 01:31:00
8:51 PM,37.0,27.0,67,29.97,9.0,WSW,11.5,-,0.00,Snow,Light Snow,240,2013-02-05 01:51:00
9:51 PM,37.9,27.0,65,29.97,10.0,WSW,11.5,25.3,0.00,Snow,Light Snow,240,2013-02-05 02:51:00
10:06 PM,37.4,26.6,65,29.88,10.0,WSW,13.8,21.9,0.00,,Overcast,250,2013-02-05 03:06:00
10:51 PM,37.0,28.0,70,29.96,10.0,West,13.8,-,0.00,,Overcast,270,2013-02-05 03:51:00
11:51 PM,37.4,28.4,70,29.86,10.0,WSW,13.8,20.7,N/A,,Overcast,240,2013-02-05 04:51:00